Weather History for Cheboygan, MI

Change the Weather History Date:

Thursday, December 27, 2012

  Actual Average (KPLN) Record (KPLN)
Temperature  
Mean Temperature 20 °F -  
Max Temperature 24 °F 27 °F 50 °F (2008)
Min Temperature 15 °F 10 °F -18 °F (2004)
Degree Days  
Heating Degree Days 46    
Moisture  
Dew Point 14 °F    
Average Humidity 77    
Maximum Humidity 95    
Minimum Humidity 65    
Precipitation  
Precipitation 0.00 in - - ()
Sea Level Pressure  
Sea Level Pressure 30.13 in    
Wind  
Wind Speed 7 mph (NNW)    
Max Wind Speed 10 mph    
Max Gust Speed -    
Visibility 10 miles    
Events      
Averages and records for this station are not official NWS values.
T = Trace of Precipitation, MM = Missing Value Source: NWS Daily Summary

Daily Weather History Graph

Daily Weather History Graph

Search for Another Location

Airport:

Trip Planner

Search our weather history database for the weather conditions in past years. The results will help you decide how hot, cold, wet, or windy it might be!

Date:

Astronomy

Dec. 27, 2012 Rise Set
Actual Time 8:18 AM EST 5:00 PM EST
Civil Twilight 7:43 AM EST 5:35 PM EST
Nautical Twilight 7:06 AM EST 6:12 PM EST
Astronomical Twilight 6:29 AM EST 6:49 PM EST
Moon 4:45 PM EST (12/27) 7:26 AM EST (12/27)
Length of Visible Light 9h 51m
Length of Day
8h 42m
Full, 100% of the Moon is Illuminated
Dec 27
Full
Dec 28
Full
Jan 4
Last Quarter
Jan 11
New
Jan 18
First Quarter

Hourly Weather History & Observations

Time (EST) Temp. Windchill Dew Point Humidity Pressure Visibility Wind Dir Wind Speed Gust Speed Precip Events Conditions
12:15 AM 20.7 °F 11.9 °F 14.7 °F 78% 30.13 in 10.0 mi NNE 6.9 mph - N/A   Overcast
12:35 AM 20.3 °F 9.8 °F 14.2 °F 77% 30.12 in 10.0 mi NNE 9.2 mph - N/A   Overcast
12:55 AM 20.3 °F 9.8 °F 14.2 °F 77% 30.12 in 10.0 mi NNE 9.2 mph - N/A   Overcast
1:15 AM 20.3 °F 12.5 °F 14.2 °F 77% 30.12 in 10.0 mi North 5.8 mph - N/A   Overcast
1:35 AM 20.1 °F 12.3 °F 14.4 °F 78% 30.12 in 10.0 mi North 5.8 mph - N/A   Overcast
1:55 AM 19.9 °F 10.1 °F 14.2 °F 78% 30.12 in 10.0 mi North 8.1 mph - N/A   Overcast
2:15 AM 19.8 °F 9.1 °F 14.0 °F 78% 30.12 in 10.0 mi North 9.2 mph - N/A   Overcast
2:36 AM 19.4 °F 8.6 °F 13.8 °F 79% 30.12 in 10.0 mi North 9.2 mph - N/A   Overcast
2:55 AM 19.2 °F 9.3 °F 13.6 °F 79% 30.12 in 10.0 mi North 8.1 mph - N/A   Overcast
3:15 AM 18.9 °F 8.8 °F 13.1 °F 78% 30.13 in 10.0 mi North 8.1 mph - N/A   Scattered Clouds
3:36 AM 18.9 °F 8.0 °F 12.9 °F 78% 30.13 in 10.0 mi North 9.2 mph - N/A   Mostly Cloudy
3:55 AM 18.5 °F 7.5 °F 12.6 °F 78% 30.13 in 10.0 mi North 9.2 mph - N/A   Overcast
4:15 AM 18.5 °F 9.3 °F 12.6 °F 78% 30.12 in 10.0 mi North 6.9 mph - N/A   Overcast
4:55 AM 18.1 °F 8.9 °F 12.2 °F 78% 30.12 in 10.0 mi NNE 6.9 mph - N/A   Overcast
5:15 AM 18.0 °F 7.7 °F 12.0 °F 78% 30.12 in 10.0 mi North 8.1 mph - N/A   Overcast
5:35 AM 17.4 °F 9.1 °F 11.7 °F 78% 30.12 in 10.0 mi North 5.8 mph - N/A   Scattered Clouds
5:55 AM 17.2 °F 8.9 °F 11.5 °F 78% 30.13 in 10.0 mi North 5.8 mph - N/A   Mostly Cloudy
6:15 AM 17.6 °F 8.2 °F 11.8 °F 78% 30.13 in 10.0 mi North 6.9 mph - N/A   Overcast
6:35 AM 17.8 °F 7.5 °F 11.5 °F 76% 30.12 in 10.0 mi NNE 8.1 mph - N/A   Overcast
6:55 AM 17.6 °F 8.2 °F 11.3 °F 76% 30.13 in 10.0 mi North 6.9 mph - N/A   Overcast
7:16 AM 17.4 °F 9.1 °F 11.3 °F 77% 30.13 in 10.0 mi North 5.8 mph - N/A   Overcast
7:35 AM 17.1 °F 8.7 °F 10.8 °F 76% 30.13 in 10.0 mi North 5.8 mph - N/A   Scattered Clouds
7:55 AM 16.7 °F 8.3 °F 10.4 °F 76% 30.13 in 10.0 mi North 5.8 mph - N/A   Clear
8:16 AM 16.7 °F 7.2 °F 10.4 °F 76% 30.13 in 10.0 mi NNE 6.9 mph - N/A   Clear
8:35 AM 16.7 °F 7.2 °F 10.2 °F 76% 30.13 in 10.0 mi North 6.9 mph - N/A   Clear
8:55 AM 15.8 °F 8.6 °F 9.7 °F 77% 30.14 in 10.0 mi NNW 4.6 mph - N/A   Clear
9:15 AM 15.8 °F 10.2 °F 9.5 °F 76% 30.15 in 10.0 mi North 3.5 mph - N/A   Scattered Clouds
9:35 AM 17.2 °F 10.2 °F 10.4 °F 75% 30.15 in 10.0 mi North 4.6 mph - N/A   Scattered Clouds
9:55 AM 17.2 °F 6.8 °F 11.1 °F 77% 30.15 in 10.0 mi NNW 8.1 mph - N/A   Scattered Clouds
10:15 AM 18.5 °F 8.4 °F 11.7 °F 75% 30.16 in 10.0 mi North 8.1 mph - N/A   Scattered Clouds
10:35 AM 18.5 °F 9.3 °F 11.3 °F 73% 30.16 in 10.0 mi North 6.9 mph - N/A   Clear
10:55 AM 18.9 °F 12.1 °F 11.3 °F 72% 30.16 in 10.0 mi North 4.6 mph - N/A   Clear
11:15 AM 19.0 °F 11.1 °F 11.1 °F 71% 30.15 in 10.0 mi North 5.8 mph - N/A   Clear
11:35 AM 19.4 °F 10.4 °F 11.3 °F 71% 30.15 in 10.0 mi NNW 6.9 mph - N/A   Clear
11:55 AM 19.8 °F 11.9 °F 12.0 °F 72% 30.14 in 10.0 mi NNW 5.8 mph - N/A   Clear
12:15 PM 20.3 °F 13.8 °F 12.4 °F 71% 30.13 in 10.0 mi NNW 4.6 mph - N/A   Clear
12:35 PM 20.8 °F 13.2 °F 12.7 °F 71% 30.12 in 10.0 mi North 5.8 mph - N/A   Clear
12:55 PM 21.2 °F 14.9 °F 12.9 °F 70% 30.11 in 10.0 mi NNW 4.6 mph - N/A   Clear
1:15 PM 21.7 °F 15.5 °F 12.2 °F 67% 30.11 in 10.0 mi NNW 4.6 mph - N/A   Clear
1:35 PM 22.1 °F 12.8 °F 12.7 °F 67% 30.10 in 10.0 mi NW 8.1 mph - N/A   Clear
1:55 PM 22.5 °F 16.3 °F 12.7 °F 66% 30.10 in 10.0 mi NNW 4.6 mph - N/A   Clear
2:15 PM 23.0 °F 13.9 °F 13.1 °F 66% 30.11 in 10.0 mi WNW 8.1 mph - N/A   Clear
2:35 PM 23.4 °F 15.2 °F 13.3 °F 65% 30.11 in 10.0 mi NW 6.9 mph - N/A   Clear
2:56 PM 23.9 °F 15.0 °F 14.0 °F 66% 30.11 in 10.0 mi NW 8.1 mph - N/A   Clear
3:15 PM 23.9 °F 15.8 °F 14.9 °F 69% 30.11 in 10.0 mi NW 6.9 mph - N/A   Clear
3:35 PM 24.4 °F 16.5 °F 15.4 °F 69% 30.12 in 10.0 mi WNW 6.9 mph - N/A   Clear
3:55 PM 23.9 °F 16.8 °F 15.1 °F 69% 30.11 in 10.0 mi NW 5.8 mph - N/A   Clear
4:15 PM 24.6 °F 17.7 °F 15.4 °F 68% 30.11 in 10.0 mi WNW 5.8 mph - N/A   Clear
4:35 PM 24.6 °F 18.8 °F 15.3 °F 68% 30.12 in 10.0 mi West 4.6 mph - N/A   Clear
4:55 PM 23.9 °F 19.5 °F 15.8 °F 71% 30.13 in 10.0 mi West 3.5 mph - N/A   Clear
5:16 PM 22.8 °F 18.2 °F 15.8 °F 74% 30.13 in 10.0 mi West 3.5 mph - N/A   Clear
5:35 PM 20.7 °F - 14.7 °F 78% 30.13 in 10.0 mi Calm Calm - N/A   Clear
5:55 PM 21.9 °F 14.5 °F 15.1 °F 75% 30.13 in 10.0 mi North 5.8 mph - N/A   Clear
6:16 PM 23.0 °F 14.7 °F 17.2 °F 79% 30.13 in 10.0 mi North 6.9 mph - N/A   Scattered Clouds
6:35 PM 23.9 °F 13.5 °F 18.1 °F 79% 30.12 in 10.0 mi North 10.4 mph - N/A   Scattered Clouds
7:35 PM 23.0 °F 14.7 °F 18.1 °F 82% 30.13 in 10.0 mi North 6.9 mph - N/A   Scattered Clouds
7:55 PM 23.4 °F 13.5 °F 18.1 °F 80% 30.13 in 10.0 mi North 9.2 mph - N/A   Scattered Clouds
8:15 PM 23.0 °F 14.7 °F 17.6 °F 80% 30.13 in 10.0 mi North 6.9 mph - N/A   Scattered Clouds
8:35 PM 21.9 °F 13.4 °F 17.1 °F 82% 30.13 in 10.0 mi NNW 6.9 mph - N/A   Scattered Clouds
8:55 PM 21.2 °F 16.4 °F 15.8 °F 80% 30.14 in 10.0 mi NW 3.5 mph - N/A   Clear
9:15 PM 19.9 °F 13.4 °F 16.5 °F 87% 30.14 in 10.0 mi West 4.6 mph - N/A   Clear
9:35 PM 19.0 °F 11.1 °F 16.5 °F 90% 30.14 in 10.0 mi West 5.8 mph - N/A   Clear
9:55 PM 18.1 °F 11.3 °F 15.6 °F 90% 30.14 in 10.0 mi West 4.6 mph - N/A   Clear
10:15 PM 18.1 °F 12.9 °F 15.8 °F 91% 30.13 in 10.0 mi West 3.5 mph - N/A   Clear
10:35 PM 17.2 °F 11.9 °F 15.1 °F 91% 30.13 in 10.0 mi West 3.5 mph - N/A   Clear
10:55 PM 17.6 °F - 15.3 °F 91% 30.13 in 10.0 mi Calm Calm - N/A   Clear
11:15 PM 17.2 °F - 15.4 °F 93% 30.13 in 10.0 mi Calm Calm - N/A   Clear
11:35 PM 16.5 °F 11.0 °F 15.3 °F 95% 30.13 in 10.0 mi West 3.5 mph - N/A   Clear
11:55 PM 17.4 °F - 15.8 °F 93% 30.13 in 10.0 mi Calm Calm - N/A   Clear